Location: Kapuskasing
(49.3803°N, 82.4001°W)
Time: 14:59:53
(UTC-05:00)

RS-44 - Pass Details

Date: 12 December 2025
Orbit: 1174 x 1511 km, 82.5° (Epoch: 21 January)

Event Time Altitude Azimuth Distance (km) Brightness Sun altitude
Exits shadow 02:50:24 18° 8° (N) 3,051 ? -51.0°
Drops below altitude 10° 02:52:11 10° 9° (N) 3,627 ? -50.8°
Sets 02:55:02 0° 11° (N) 4,580 ? -50.4°
